This is the latest recevied weather packets stored in our database for station/object KB1WCR. If no packets are shown the sender has not sent any weather packets the latest 1 day(s).
| Time | Temp. | Humidity | Pressure | Rain* | Wind** | Luminosity | Snow |
|---|---|---|---|---|---|---|---|
| 1778110799 | 13.33° C | 99% | 1004.9 hPa | 0 mm | - | 1 W/m² | - |
| 1778108675 | 13.33° C | 99% | 1004.7 hPa | 0 mm | - | 10 W/m² | - |
| 1778108372 | 13.33° C | 99% | 1004.9 hPa | 0 mm | - | 11 W/m² | - |
| 1778106249 | 13.89° C | 99% | 1005 hPa | 0 mm | - | 24 W/m² | - |
| 1778105036 | 13.89° C | 99% | 1005.1 hPa | 0 mm | - | 27 W/m² | - |
| 1778103520 | 13.89° C | 99% | 1005.5 hPa | 0 mm | - | 47 W/m² | - |
| 1778103217 | 13.89° C | 99% | 1005.4 hPa | 0 mm | - | 60 W/m² | - |
| 1778102914 | 13.89° C | 99% | 1005.2 hPa | 1.27 mm | - | 100 W/m² | - |
| 1778102305 | 13.89° C | 99% | 1005.5 hPa | 0 mm | - | 52 W/m² | - |
| 1778101699 | 13.89° C | 99% | 1005.5 hPa | 3.05 mm | - | 58 W/m² | - |
| 1778101093 | 13.89° C | 99% | 1005.7 hPa | 7.87 mm | - | 83 W/m² | - |
| 1778100485 | 13.89° C | 99% | 1006.1 hPa | 4.32 mm | - | 20 W/m² | - |
| 1778098062 | 14.44° C | 99% | 1005.9 hPa | 1.78 mm | - | 47 W/m² | - |
| 1778096545 | 14.44° C | 99% | 1006.4 hPa | 9.65 mm | - | 55 W/m² | - |
| 1778096243 | 14.44° C | 99% | 1006.5 hPa | 6.1 mm | - | 39 W/m² | - |
| 1778093811 | 15° C | 94% | 1006.8 hPa | 3.05 mm | - | 48 W/m² | - |
| 1778093205 | 15.56° C | 90% | 1006.5 hPa | 1.78 mm | - | 48 W/m² | - |
| 1778092902 | 15.56° C | 90% | 1006.4 hPa | 3.05 mm | - | 81 W/m² | - |
| 1778089869 | 17.78° C | 80% | 1006.1 hPa | 0 mm | - | 176 W/m² | - |
| 1778087138 | 17.78° C | 83% | 1006.9 hPa | 0 mm | - | 240 W/m² | - |
| 1778084707 | 17.78° C | 82% | 1007.7 hPa | 0 mm | - | 213 W/m² | - |
| 1778084404 | 17.22° C | 82% | 1007.8 hPa | 0 mm | - | 219 W/m² | - |
| 1778083496 | 17.22° C | 83% | 1008.1 hPa | 0 mm | - | 277 W/m² | - |
| 1778083193 | 17.22° C | 82% | 1008.4 hPa | 0 mm | - | 299 W/m² | - |
| 1778082891 | 17.22° C | 83% | 1008.4 hPa | 0 mm | - | 263 W/m² | - |
* Rain latest hour (hover to see other rain measurements)
** Current wind speed in m/s (hover to see current wind gust speed)